Flag for Norway Weather past 2 weeks in Elverum, Norway

Now
60 °F

Cool.


Feels Like: 60 °F
Forecast: 50 / 68 °F
Wind: 3 mph from Southeast

Location: Haugedalshogda

Current Time: Sep 2, 2014 at 11:57:26 AM

Latest Report: Sep 2, 2014 at 11:00 AM


Visibility: N/A

Pressure: 30.20 "Hg

Humidity: 69%

Dew point: 49 °F

Location of ElverumLocation

Historic Weather in Elverum — Graph

°F

Elverum temperature yesterday

Maximum temperature yesterday: 60 °F (at 2:00 PM)
Minimum temperature yesterday: 39 °F (at 3:00 AM)
Average temperature yesterday: 49 °F

Past Weeks' High & Low Weather Summary

 TemperatureHumidityPressure
High66 °F (Aug 21, 3:00 PM)95% (Aug 23, 5:00 AM)30.28 "Hg (Aug 23, 5:00 AM)
Low36 °F (Aug 29, 6:00 AM)38% (Aug 21, 3:00 PM)29.18 "Hg (Aug 18, 4:00 PM)
Average52 °F80%29.80 "Hg
* Reported Aug 18 10:00 AM — Sep 2 10:00 AM, Elverum, Weather by CustomWeather, © 2014

Note: Actual official high and low records may vary slightly from our data, if they occured in-between our weather recording intervals... More about our weather records

Advertising

Elverum weather history for previous 24 hours

 ConditionsComfort  
Time TempWeatherWind HumidityBarometerVisibility
10:00 AM
Sep 2
54 °FCool.1 mph80%30.20 "HgN/A
9:00 AM50 °FCool.2 mph91%30.20 "HgN/A
8:00 AM46 °FCool.1 mph95%30.21 "HgN/A
7:00 AM42 °FQuite cool.No wind94%30.21 "HgN/A
6:00 AM42 °FQuite cool.1 mph93%30.20 "HgN/A
5:00 AM42 °FQuite cool.1 mph94%30.21 "HgN/A
4:00 AM42 °FQuite cool.2 mph93%30.20 "HgN/A
3:00 AM42 °FQuite cool.2 mph94%30.21 "HgN/A
2:00 AM40 °FQuite cool.No wind93%30.21 "HgN/A
1:00 AM42 °FQuite cool.1 mph93%30.21 "HgN/A
12:00 AM43 °FQuite cool.2 mph93%30.20 "HgN/A
11:00 PM
Sep 1
42 °FQuite cool.1 mph92%30.20 "HgN/A
10:00 PM43 °FQuite cool.1 mph90%30.20 "HgN/A
9:00 PM49 °FCool.1 mph82%30.18 "HgN/A
8:00 PM53 °FCool.2 mph72%30.16 "HgN/A
7:00 PM56 °FCool.3 mph67%30.15 "HgN/A
6:00 PM58 °FCool.3 mph61%30.16 "HgN/A
5:00 PM59 °FRefreshingly cool.6 mph60%30.17 "HgN/A
4:00 PM59 °FCool.5 mph62%30.18 "HgN/A
3:00 PM59 °FRefreshingly cool.5 mph59%30.18 "HgN/A
2:00 PM60 °FRefreshingly cool.3 mph57%30.19 "HgN/A
1:00 PM59 °FRefreshingly cool.3 mph55%30.20 "HgN/A
12:00 PM58 °FRefreshingly cool.2 mph57%30.22 "HgN/A
11:00 AM54 °FCool.1 mph69%30.24 "HgN/A
Weather by CustomWeather, © 2014

See weather overviewHow to use our weather pages